Regional Weather Roundup
Issued by NWS Portland, ME

Home | Current Version | Previous Version | Text Only | Print | Product List | Glossary On
Versions: 1 2 3 4 5 6 7 8 9 10 11 12 13 14 15 16 17 18 19 20 21 22 23 24 25 26 27 28 29 30 31 32 33 34 35 36 37 38 39 40 41 42 43 44 45 46 47 48 49 50
000
ASUS41 KGYX 222010
RWRGYX
WEATHER ROUNDUP FOR MAINE AND NEW HAMPSHIRE
NATIONAL WEATHER SERVICE GRAY ME
400 PM EDT TUE JUL 22 2014

MEZ002-005-006-010-012-015-018-020-021-024-026-027-029-222100-
MAINE

CITY           SKY/WX    TMP DP  RH WIND       PRES   REMARKS
PORTLAND       MOSUNNY   78  65  63 S15       30.03F
SANFORD        MOSUNNY   82  66  57 S9        30.03F
BAR HARBOR     SUNNY     73  66  78 S16       30.03F
WISCASSET      SUNNY     78  65  63 S8        30.05F
ROCKLAND       SUNNY     73  66  78 S8        30.03F
FRYEBURG       SUNNY     87  65  47 SW9       30.02F
LEWISTONAUBURN SUNNY     82  68  61 S10       30.03F
AUGUSTA        SUNNY     82  67  60 S12       30.02F
WATERVILLE     SUNNY     82  68  61 S6        29.97F
BANGOR         MOSUNNY   82  63  52 S15       30.00F
GREENVILLE       N/A     80  62  54 CALM      30.01F
MILLINOCKET    MOSUNNY   86  65  49 VRB6      29.97F
HOULTON        MOSUNNY   86  63  45 SW14      29.94F
PRESQUE ISLE   MOSUNNY   84  61  45 SW13      29.92F
FRENCHVILLE    MOSUNNY   82  60  47 SW14G21   29.92F
CARIBOU        MOSUNNY   85  63  47 SW9       29.91F
$$

NHZ002-005-008-009-011-012-014-222100-
NEW HAMPSHIRE

CITY           SKY/WX    TMP DP  RH WIND       PRES   REMARKS
PORTSMOUTH     MOSUNNY   82  67  60 SE14      30.03F
ROCHESTER      PTSUNNY   84  67  56 S6        30.03F
NASHUA         MOSUNNY   92  63  38 SW7       30.04S HX  93
MANCHESTER     PTSUNNY   88  62  41 S10       30.01F
CONCORD        PTSUNNY   88  64  44 VRB7      30.03F
LACONIA        MOSUNNY   84  64  51 SW10      30.03S
PLYMOUTH       FAIR      87  62  43 W7        30.02F
BERLIN         PTSUNNY   85  62  46 VRB3      30.04F
WHITEFIELD     SUNNY     85  63  47 W7        30.04F
JAFFREY        MOSUNNY   84  63  49 S8        30.09F
LEBANON        MOSUNNY   88  63  43 VRB7      30.02F
MT WASHINGTON  PTSUNNY   59  52  77 W15G22      N/A
$$

VTZ005-007-008-222100-
VERMONT

CITY           SKY/WX    TMP DP  RH WIND       PRES   REMARKS
ST JOHNSBURY     N/A     84  62  47 MISG      30.00F
MONTPELIER     SUNNY     84  63  49 NW3       30.09S
BURLINGTON     PTSUNNY   88  63  43 S6        30.00F
$$

MAZ007-012-024-CTZ003-RIZ002-NYZ038-NYZ072-222100-
SOUTHERN NEW ENGLAND AND NY

CITY           SKY/WX    TMP DP  RH WIND       PRES   REMARKS
BOSTON         MOSUNNY   79  67  66 E14       30.04F
WORCESTER      SUNNY     85  61  44 W7        30.09F
NANTUCKET      SUNNY     71  65  81 SW13      30.11F
PROVIDENCE     MOSUNNY   87  68  52 SW12      30.06F HX  90
HARTFORD       PTSUNNY   90  65  43 SW9       30.04F HX  92
ALBANY         MOSUNNY   86  68  54 S8        30.03F
NEW YORK CITY  MOSUNNY   84  66  54 S17       30.08F
$$

ANZ081-ANZ082-ANZ150-NHZ014-MEZ023>029-222100-
COASTAL MARINE OBSERVATIONS

STATION/POSITION TIME  TEMP    WIND        PRES    WAVE
                       AIR SEA DIR/SP/G            HT/PER
                 (UTC) (F)     (DEG/KT/KT) (MB)    (FT/S)
MOUNT DESERT ROC 2000   60                 1017.6
MATINICUS ROCK   1900          200/ 12/ 12 1018.1F
PORTLAND WX BUOY 2000   67 65  180/ 14/ 16 1016.9F   2/ 7
WELLS            2000   70 66  190/ 16/ 18 1016.5S
ISLE OF SHOALS   1900   68     160/ 21/ 22 1017.1F
JEFFREYS LEDGE   2000      67                N/A     2/ 7
CASHES LEDGE BUO 2000   67 67  VRB 14/ 16  1017.4F   3/ 7
$$

.............KEY..............
   WCI - WIND CHILL
   TC  - TEMPERATURE IN CELSIUS
   VSB - VISIBILITY IN MILES
   HX  - HEAT INDEX
   FAIR- INDICATES FEW OR NO CLOUDS BELOW 12,000 FT, WITH NO
         SIGNIFICANT WEATHER AND/OR OBSTRUCTIONS TO VISIBILITY.




USA.gov is the U.S. government's official web portal to all federal, state and local government web resources and services.